When you browse on this site, cookies collect data to enhance your experience and personalize the content and advertising you see.
Visit our Privacy Policy to learn more. By continuing to use the site, you agree to this use of cookies and data.
  • In United Kingdom
  • List of Countries
  • For 7 days
  • Water Temperature
  • Satellite Maps
  • Weather Map
  • Weather Widgets
  • user-avatar
    Login

    Hourly Weather Igls

    Today, 20 June, Thursday

    Time Temperature Precipitation Wind Pressure Humidity
    00:00 +15°C° 0.1 mm 1 mps 683 mmHg 82%
    01:00 +16°C° 0 mm 2 mps 683 mmHg 80%
    02:00 +15°C° 0.4 mm 1 mps 683 mmHg 83%
    03:00 +14°C° 0.4 mm 1 mps 683 mmHg 86%
    04:00 +14°C° 0.4 mm 1 mps 683 mmHg 89%
    05:00 +15°C° 0.3 mm 1 mps 683 mmHg 87%
    06:00 +18°C° 0.3 mm 1 mps 684 mmHg 85%
    07:00 +17°C° 0.3 mm 0 mps 684 mmHg 83%
    08:00 +20°C° 1.2 mm 1 mps 684 mmHg 81%
    09:00 +21°C° 1.2 mm 1 mps 684 mmHg 80%
    10:00 +22°C° 1.2 mm 1 mps 684 mmHg 79%
    11:00 +22°C° 1.5 mm 1 mps 684 mmHg 79%
    12:00 +22°C° 1.5 mm 1 mps 684 mmHg 79%
    13:00 +22°C° 1.5 mm 1 mps 684 mmHg 80%
    14:00 +21°C° 1.3 mm 1 mps 684 mmHg 82%
    15:00 +21°C° 1.3 mm 1 mps 684 mmHg 85%
    16:00 +20°C° 1.3 mm 1 mps 684 mmHg 88%
    17:00 +20°C° 0.6 mm 1 mps 684 mmHg 89%
    18:00 +20°C° 0.6 mm 1 mps 684 mmHg 91%
    19:00 +19°C° 0.6 mm 1 mps 684 mmHg 92%
    20:00 +19°C° 0.6 mm 1 mps 684 mmHg 93%
    21:00 +18°C° 0.6 mm 1 mps 685 mmHg 94%
    22:00 +16°C° 0.6 mm 1 mps 685 mmHg 94%
    23:00 +16°C° 0.4 mm 1 mps 685 mmHg 95%

    Tomorrow, 21 June, Friday

    Time Temperature Precipitation Wind Pressure Humidity
    00:00 +16°C° 0.4 mm 1 mps 685 mmHg 95%
    01:00 +15°C° 0.4 mm 1 mps 685 mmHg 95%
    02:00 +15°C° 0.1 mm 1 mps 685 mmHg 94%
    03:00 +15°C° 0.1 mm 1 mps 685 mmHg 92%
    04:00 +14°C° 0.1 mm 0 mps 685 mmHg 91%
    05:00 +15°C° 0.1 mm 0 mps 685 mmHg 89%
    06:00 +15°C° 0.1 mm 0 mps 685 mmHg 86%
    07:00 +16°C° 0.1 mm 0 mps 686 mmHg 84%
    08:00 +19°C° 0.2 mm 1 mps 686 mmHg 78%
    09:00 +20°C° 0.2 mm 1 mps 686 mmHg 72%
    10:00 +21°C° 0.2 mm 1 mps 686 mmHg 65%
    11:00 +22°C° 0.2 mm 1 mps 686 mmHg 62%
    12:00 +23°C° 0.2 mm 1 mps 687 mmHg 58%
    13:00 +25°C° 0.2 mm 1 mps 687 mmHg 54%
    14:00 +24°C° 0.9 mm 1 mps 686 mmHg 64%
    15:00 +23°C° 0.9 mm 2 mps 686 mmHg 73%
    16:00 +21°C° 0.9 mm 2 mps 686 mmHg 83%
    17:00 +21°C° 1.9 mm 1 mps 685 mmHg 88%
    18:00 +19°C° 1.9 mm 1 mps 685 mmHg 92%
    19:00 +18°C° 1.9 mm 1 mps 685 mmHg 97%
    20:00 +18°C° 3.2 mm 1 mps 685 mmHg 98%
    21:00 +16°C° 3.2 mm 1 mps 686 mmHg 98%
    22:00 +16°C° 3.2 mm 1 mps 686 mmHg 98%
    23:00 +15°C° 1.3 mm 0 mps 686 mmHg 98%

    Day after tomorrow, 22 June, Saturday

    Time Temperature Precipitation Wind Pressure Humidity
    00:00 +15°C° 1.3 mm 0 mps 686 mmHg 98%
    01:00 +14°C° 1.3 mm 0 mps 685 mmHg 98%
    02:00 +14°C° 0.4 mm 0 mps 685 mmHg 98%
    03:00 +14°C° 0.4 mm 0 mps 685 mmHg 98%
    04:00 +14°C° 0.4 mm 0 mps 685 mmHg 97%
    05:00 +15°C° 0.1 mm 0 mps 685 mmHg 96%
    06:00 +16°C° 0.1 mm 1 mps 685 mmHg 95%
    07:00 +18°C° 0.1 mm 1 mps 685 mmHg 93%
    08:00 +19°C° 0.6 mm 1 mps 685 mmHg 91%
    09:00 +19°C° 0.6 mm 1 mps 685 mmHg 88%
    10:00 +20°C° 0.6 mm 1 mps 685 mmHg 86%
    11:00 +20°C° 1 mm 1 mps 685 mmHg 86%
    12:00 +20°C° 1 mm 1 mps 685 mmHg 86%
    13:00 +20°C° 1 mm 1 mps 685 mmHg 86%
    14:00 +20°C° 1.1 mm 1 mps 685 mmHg 87%
    15:00 +19°C° 1.1 mm 1 mps 685 mmHg 88%
    16:00 +19°C° 1.1 mm 1 mps 684 mmHg 89%
    17:00 +19°C° 1.1 mm 1 mps 684 mmHg 91%
    18:00 +18°C° 1.1 mm 1 mps 684 mmHg 93%
    19:00 +18°C° 1.1 mm 1 mps 685 mmHg 96%
    20:00 +16°C° 0.1 mm 1 mps 685 mmHg 96%
    21:00 +15°C° 0.1 mm 1 mps 685 mmHg 96%
    22:00 +14°C° 0.1 mm 1 mps 685 mmHg 97%
    23:00 +14°C° 0 mm 1 mps 685 mmHg 97%

    23 June, Sunday

    Time Temperature Precipitation Wind Pressure Humidity
    00:00 +14°C° 0 mm 1 mps 685 mmHg 97%
    01:00 +13°C° 0 mm 1 mps 685 mmHg 97%
    02:00 +13°C° 0 mm 1 mps 685 mmHg 97%
    03:00 +13°C° 0 mm 1 mps 685 mmHg 97%
    04:00 +13°C° 0 mm 1 mps 685 mmHg 97%
    05:00 +14°C° 0 mm 1 mps 685 mmHg 95%
    06:00 +15°C° 0 mm 1 mps 685 mmHg 93%
    07:00 +16°C° 0 mm 1 mps 686 mmHg 92%
    08:00 +19°C° 0 mm 1 mps 686 mmHg 82%
    09:00 +21°C° 0 mm 1 mps 687 mmHg 73%
    10:00 +23°C° 0 mm 1 mps 687 mmHg 63%
    11:00 +24°C° 0 mm 1 mps 687 mmHg 60%
    12:00 +25°C° 0 mm 2 mps 687 mmHg 57%
    13:00 +25°C° 0 mm 2 mps 688 mmHg 54%
    14:00 +25°C° 0 mm 2 mps 687 mmHg 56%
    15:00 +25°C° 0 mm 2 mps 687 mmHg 59%
    16:00 +25°C° 0 mm 2 mps 687 mmHg 61%
    17:00 +24°C° 0 mm 2 mps 687 mmHg 67%
    18:00 +23°C° 0 mm 2 mps 687 mmHg 73%
    19:00 +22°C° 0 mm 1 mps 688 mmHg 79%
    20:00 +20°C° 0 mm 1 mps 688 mmHg 84%
    21:00 +19°C° 0 mm 1 mps 688 mmHg 90%
    22:00 +16°C° 0 mm 1 mps 688 mmHg 96%
    23:00 +15°C° 0 mm 1 mps 688 mmHg 95%

    24 June, Monday

    Time Temperature Precipitation Wind Pressure Humidity
    00:00 +15°C° 0 mm 1 mps 688 mmHg 94%
    01:00 +15°C° 0 mm 1 mps 688 mmHg 94%
    02:00 +15°C° 0 mm 1 mps 688 mmHg 93%
    03:00 +14°C° 0 mm 1 mps 688 mmHg 92%
    04:00 +14°C° 0 mm 1 mps 688 mmHg 91%
    05:00 +16°C° 0 mm 0 mps 688 mmHg 84%
    06:00 +18°C° 0 mm 0 mps 689 mmHg 77%
    07:00 +20°C° 0 mm 0 mps 690 mmHg 70%
    08:00 +24°C° 0 mm 1 mps 690 mmHg 61%
    09:00 +27°C° 0 mm 1 mps 690 mmHg 52%
    10:00 +29°C° 0 mm 1 mps 691 mmHg 43%
    11:00 +30°C° 0 mm 1 mps 691 mmHg 39%
    12:00 +30°C° 0 mm 2 mps 691 mmHg 36%
    13:00 +31°C° 0 mm 2 mps 691 mmHg 33%
    14:00 +31°C° 0 mm 2 mps 691 mmHg 34%
    15:00 +31°C° 0 mm 2 mps 691 mmHg 36%
    16:00 +31°C° 0 mm 2 mps 691 mmHg 38%
    17:00 +29°C° 0 mm 2 mps 691 mmHg 49%
    18:00 +27°C° 0 mm 2 mps 690 mmHg 61%
    19:00 +26°C° 0 mm 1 mps 690 mmHg 72%
    20:00 +24°C° 0 mm 1 mps 690 mmHg 78%
    21:00 +21°C° 0 mm 1 mps 690 mmHg 84%
    22:00 +19°C° 0 mm 1 mps 690 mmHg 90%
    23:00 +19°C° 0 mm 1 mps 690 mmHg 88%

    25 June, Tuesday

    Time Temperature Precipitation Wind Pressure Humidity
    00:00 +19°C° 0 mm 1 mps 690 mmHg 87%
    01:00 +19°C° 0 mm 1 mps 690 mmHg 85%
    02:00 +18°C° 0 mm 1 mps 690 mmHg 83%
    03:00 +18°C° 0 mm 1 mps 690 mmHg 82%
    04:00 +18°C° 0 mm 1 mps 690 mmHg 80%
    05:00 +20°C° 0 mm 1 mps 690 mmHg 73%
    06:00 +21°C° 0 mm 0 mps 691 mmHg 66%
    07:00 +23°C° 0 mm 0 mps 692 mmHg 59%
    08:00 +28°C° 0 mm 1 mps 692 mmHg 51%
    09:00 +30°C° 0 mm 1 mps 692 mmHg 42%
    10:00 +32°C° 0 mm 1 mps 693 mmHg 33%
    11:00 +33°C° 0 mm 1 mps 693 mmHg 31%
    12:00 +35°C° 0 mm 2 mps 693 mmHg 28%
    13:00 +35°C° 0 mm 2 mps 693 mmHg 25%
    14:00 +35°C° 0 mm 2 mps 693 mmHg 28%
    15:00 +35°C° 0 mm 2 mps 693 mmHg 30%
    16:00 +34°C° 0 mm 3 mps 693 mmHg 32%
    17:00 +31°C° 0 mm 2 mps 693 mmHg 44%
    18:00 +29°C° 0 mm 2 mps 693 mmHg 56%
    19:00 +27°C° 0 mm 1 mps 692 mmHg 68%
    20:00 +25°C° 0 mm 1 mps 692 mmHg 75%
    21:00 +23°C° 0 mm 1 mps 692 mmHg 81%
    22:00 +21°C° 0 mm 1 mps 692 mmHg 87%
    23:00 +21°C° 0 mm 1 mps 692 mmHg 85%
    Show more